PBO Station Position Time Series. Reference Frame : NAM14
Format Version,1.1.0
4-character ID,P496
Station name,McCabe_UESCS2005
Begin Date, 2005-11-11
End Date, 2019-10-07
Release Date, 2019-10-08
Reference position, 32.7506258054 North Latitude, -115.5959535038 East Longitude, -40.10642 meters elevation,
Date, North (mm), East (mm), Vertical (mm), North Std. Deviation (mm), East Std. Deviation (mm),              Vertical Std. Deviation (mm), Quality,
2005-11-11,0.00, 0.00, 0.00, 2.01, 1.77, 7.80, repro,
2005-11-12,-0.77, 1.38, 11.67, 1.95, 1.77, 7.71, repro,
2005-11-13,-1.09, 1.76, 6.61, 2.04, 1.78, 7.90, repro,
2005-11-14,-0.54, 0.41, 7.80, 2.01, 1.73, 7.78, repro,
2005-11-15,0.70, 1.53, 5.97, 1.97, 1.65, 7.57, repro,
2005-11-16,1.46, 1.08, 2.23, 1.97, 1.70, 7.63, repro,
2005-11-17,0.19, 1.27, -0.71, 1.93, 1.65, 7.49, repro,
2005-11-18,-0.06, 1.57, 8.92, 1.94, 1.66, 7.55, repro,
2005-11-19,0.01, 0.63, 6.06, 1.94, 1.66, 7.55, repro,
2005-11-20,-0.20, 0.81, 3.12, 1.99, 1.73, 7.75, repro,
2005-11-21,1.98, 0.16, 4.26, 2.04, 1.74, 8.05, repro,
2005-11-22,0.22, 0.98, 5.14, 1.97, 1.75, 7.81, repro,
2005-11-23,0.34, 1.65, 7.16, 1.93, 1.67, 7.57, repro,
2005-11-24,-0.14, 1.79, 6.49, 1.95, 1.67, 7.62, repro,
2005-11-25,-0.81, -0.15, 15.47, 1.98, 1.72, 7.78, repro,
2005-11-26,1.45, -0.78, 15.46, 2.06, 1.81, 8.16, repro,
2005-11-27,0.40, 0.40, 4.06, 1.98, 1.70, 7.71, repro,
2005-11-28,0.62, 1.25, 3.29, 2.01, 1.72, 7.82, repro,
2005-11-29,-0.32, 1.05, 6.51, 1.99, 1.71, 7.82, repro,
2005-11-30,0.44, 0.80, 0.60, 1.98, 1.73, 7.76, repro,
2005-12-01,0.53, 0.57, 5.15, 1.98, 1.70, 7.71, repro,
2005-12-02,0.93, -0.49, 5.81, 1.97, 1.70, 7.62, repro,
2005-12-03,0.56, 0.91, 15.20, 1.98, 1.69, 7.70, repro,
2005-12-04,0.62, 0.89, 2.55, 1.95, 1.68, 7.56, repro,
2005-12-05,0.10, 1.09, 2.52, 1.98, 1.70, 7.75, repro,
2005-12-06,-0.14, -0.18, 1.26, 1.99, 1.70, 7.73, repro,
2005-12-07,0.86, 0.16, 6.94, 2.00, 1.74, 7.83, repro,
2005-12-08,0.32, 1.03, 1.83, 2.00, 1.73, 7.82, repro,
2005-12-09,1.14, 1.47, 2.40, 1.98, 1.70, 7.71, repro,
2005-12-10,0.79, -0.39, 8.53, 1.94, 1.68, 7.61, repro,
2005-12-11,0.61, 0.43, 8.77, 1.94, 1.68, 7.65, repro,
2005-12-12,0.62, -0.59, 6.98, 1.93, 1.66, 7.51, repro,
2005-12-13,0.77, 0.38, 7.99, 1.95, 1.66, 7.56, repro,
2005-12-14,2.17, 1.14, 5.03, 1.98, 1.69, 7.71, repro,
2005-12-15,0.96, 0.97, 5.54, 2.01, 1.72, 7.75, repro,
2005-12-16,-0.27, -0.18, 10.98, 1.95, 1.68, 7.68, repro,
2005-12-17,-0.02, -0.47, 11.45, 1.99, 1.73, 7.84, repro,
2005-12-18,1.74, 0.23, 7.44, 1.98, 1.78, 7.70, repro,
2005-12-19,2.01, -0.49, 2.02, 2.05, 1.81, 7.87, repro,
2005-12-20,1.73, 0.43, 5.18, 1.98, 1.79, 7.79, repro,
2005-12-21,1.34, -0.61, 7.70, 1.98, 1.79, 7.72, repro,
2005-12-22,0.35, -0.92, 8.00, 1.98, 1.81, 7.75, repro,
2005-12-23,1.56, 0.69, 11.24, 2.03, 1.79, 7.98, repro,
2005-12-24,1.66, -0.75, 10.29, 2.12, 1.81, 8.20, repro,
2005-12-25,0.07, -0.06, 16.76, 2.01, 1.74, 7.72, repro,
2005-12-26,0.15, 0.48, 11.41, 2.00, 1.69, 7.72, repro,
2005-12-27,0.40, -1.39, 11.15, 2.01, 1.77, 7.82, repro,
2005-12-28,0.12, 0.76, 8.91, 1.98, 1.71, 7.72, repro,
2005-12-29,-0.80, -1.43, 16.18, 2.18, 1.96, 8.71, repro,
2005-12-30,0.73, -0.58, 14.27, 2.14, 1.84, 8.25, repro,
2005-12-31,1.15, 0.95, 11.79, 2.11, 1.85, 8.30, repro,
2006-01-01,2.45, 0.06, 9.19, 2.02, 1.76, 7.80, repro,
2006-01-02,-0.94, 1.13, 17.30, 1.98, 1.71, 7.78, repro,
2006-01-03,1.54, 2.56, 21.66, 2.22, 1.93, 8.60, repro,
2006-01-04,1.79, -0.67, 6.12, 2.08, 1.86, 7.99, repro,
2006-01-05,1.06, 0.35, 6.14, 2.05, 1.79, 7.82, repro,
2006-01-06,1.81, 0.90, 7.75, 2.06, 1.78, 7.79, repro,
2006-01-07,1.74, 0.35, 20.58, 1.97, 1.70, 7.64, repro,
2006-01-08,0.96, 0.65, 15.96, 2.03, 1.81, 7.84, repro,
2006-01-09,0.43, 1.15, 12.85, 2.04, 1.80, 7.81, repro,
2006-01-10,1.49, 0.64, 11.75, 2.04, 1.81, 7.80, repro,
2006-01-11,1.90, 1.50, 10.47, 2.02, 1.74, 7.72, repro,
2006-01-12,2.23, 0.68, 5.06, 1.99, 1.69, 7.67, repro,
2006-01-13,1.88, 0.04, 14.20, 2.08, 1.79, 8.09, repro,
2006-01-14,0.74, -0.57, 6.19, 2.05, 1.73, 7.86, repro,
2006-01-15,-2.25, 3.28, 19.95, 2.04, 1.78, 7.89, repro,
2006-01-16,1.33, 0.42, 10.44, 2.02, 1.76, 7.77, repro,
2006-01-17,2.71, 0.58, 6.66, 2.04, 1.72, 7.71, repro,
2006-01-18,2.39, 0.44, 10.69, 1.97, 1.68, 7.58, repro,
2006-01-19,1.68, -0.36, 7.32, 2.01, 1.71, 7.85, repro,
2006-01-20,0.37, -0.49, 6.34, 2.00, 1.71, 7.83, repro,
2006-01-21,1.28, 0.54, 10.31, 1.98, 1.67, 7.57, repro,
2006-01-22,1.46, 0.33, 6.31, 1.96, 1.65, 7.51, repro,
2006-01-23,1.83, -1.06, 8.50, 1.99, 1.68, 7.68, repro,
2006-01-24,2.16, -0.01, 11.45, 2.00, 1.69, 7.77, repro,
2006-01-25,0.38, -0.78, 12.99, 1.90, 1.62, 7.34, repro,
2006-01-26,0.88, -0.26, 8.78, 1.91, 1.65, 7.48, repro,
2006-01-27,1.22, 1.22, 9.67, 1.92, 1.64, 7.43, repro,
2006-01-28,1.98, 0.69, 8.04, 1.93, 1.66, 7.47, repro,
2006-01-29,0.62, -1.22, 14.42, 1.92, 1.62, 7.41, repro,
2006-01-30,0.98, -0.15, 10.06, 1.89, 1.61, 7.33, repro,
2006-01-31,1.29, 0.36, 12.60, 1.93, 1.63, 7.46, repro,
2006-02-01,1.72, 0.52, 19.95, 1.92, 1.64, 7.50, repro,
2006-02-02,1.38, -0.43, 15.20, 1.93, 1.64, 7.49, repro,
2006-02-03,1.27, -1.35, 13.12, 1.95, 1.67, 7.62, repro,
2006-02-04,0.73, -0.97, 9.89, 1.92, 1.63, 7.47, repro,
2006-02-05,2.55, -0.60, 10.26, 1.93, 1.63, 7.50, repro,
2006-02-06,1.37, -0.34, 8.98, 1.93, 1.62, 7.48, repro,
2006-02-07,0.93, 0.72, 4.69, 1.91, 1.61, 7.46, repro,
2006-02-08,0.74, 0.77, 3.94, 1.94, 1.67, 7.67, repro,
2006-02-09,1.01, -0.49, 12.34, 1.98, 1.65, 7.80, repro,
2006-02-10,0.84, 0.06, 2.24, 2.04, 1.63, 7.90, repro,
2006-02-11,2.19, -0.76, 3.88, 1.93, 1.62, 7.53, repro,
2006-02-12,1.92, -0.12, 0.31, 1.94, 1.62, 7.50, repro,
2006-02-13,1.20, 0.94, 2.71, 1.94, 1.66, 7.62, repro,
2006-02-14,1.29, 0.02, 12.67, 1.93, 1.61, 7.51, repro,
2006-02-15,0.63, -0.75, 5.87, 1.92, 1.64, 7.58, repro,
2006-02-16,1.95, 0.20, 9.11, 1.93, 1.63, 7.54, repro,
2006-02-17,0.27, 0.19, 11.91, 1.93, 1.64, 7.57, repro,
2006-02-18,0.50, -0.87, 7.15, 1.93, 1.64, 7.55, repro,
2006-02-19,-0.08, -1.77, 11.16, 1.92, 1.63, 7.46, repro,
2006-02-20,1.91, 0.08, 6.42, 1.93, 1.63, 7.54, repro,
2006-02-21,2.51, 0.13, 11.21, 1.92, 1.64, 7.52, repro,
2006-02-22,2.52, 0.94, 20.38, 1.94, 1.65, 7.55, repro,
2006-02-23,2.14, 1.05, 12.67, 1.91, 1.63, 7.44, repro,
2006-02-24,1.51, 1.16, 6.21, 1.92, 1.67, 7.56, repro,
2006-02-25,1.02, 0.23, 8.01, 1.92, 1.63, 7.41, repro,
2006-02-26,1.34, 0.46, 8.38, 1.90, 1.64, 7.42, repro,
2006-02-27,1.31, -0.63, 20.03, 1.93, 1.66, 7.53, repro,
2006-02-28,1.34, 1.52, 17.90, 1.98, 1.70, 7.64, repro,
2006-03-01,2.14, 1.98, 14.18, 2.02, 1.76, 7.77, repro,
2006-03-02,1.56, 0.93, 7.68, 1.89, 1.64, 7.42, repro,
2006-03-03,0.70, -0.71, 15.60, 1.99, 1.67, 7.74, repro,
2006-03-04,1.58, -0.79, 16.78, 1.90, 1.66, 7.44, repro,
2006-03-05,1.69, 0.90, 15.30, 1.91, 1.66, 7.50, repro,
2006-03-06,2.46, 0.03, 1.10, 1.95, 1.71, 7.67, repro,
2006-03-07,2.17, 0.39, 8.67, 1.90, 1.64, 7.49, repro,
2006-03-08,0.78, 1.30, 11.17, 1.89, 1.64, 7.43, repro,
2006-03-09,2.04, -0.57, 17.44, 1.89, 1.65, 7.39, repro,
2006-03-10,0.78, 1.97, 6.82, 1.93, 1.67, 7.56, repro,
2006-03-11,0.44, -1.18, 19.07, 1.95, 1.69, 7.54, repro,
2006-03-12,2.44, 1.79, 8.55, 1.94, 1.67, 7.51, repro,
2006-03-13,2.75, 0.30, 10.94, 1.97, 1.66, 7.46, repro,
2006-03-14,0.10, 1.35, 13.08, 1.94, 1.67, 7.44, repro,
2006-03-15,1.51, 0.02, 16.45, 1.94, 1.67, 7.45, repro,
2006-03-16,1.35, 0.10, 12.03, 2.03, 1.80, 7.87, repro,
2006-03-17,1.62, -0.74, 14.65, 2.03, 1.82, 7.92, repro,
2006-03-18,2.67, -1.05, 8.59, 1.96, 1.71, 7.64, repro,
2006-03-19,0.78, -1.00, 9.84, 1.93, 1.69, 7.47, repro,
2006-03-20,1.51, 0.64, 12.68, 1.91, 1.67, 7.36, repro,
2006-03-21,1.19, 1.10, 15.31, 1.93, 1.68, 7.46, repro,
2006-03-22,1.03, -0.28, 8.07, 1.93, 1.69, 7.49, repro,
2006-03-23,1.35, -0.18, 1.73, 2.01, 1.75, 7.91, repro,
2006-03-24,1.06, -0.10, 9.32, 1.98, 1.71, 7.70, repro,
2006-03-25,0.42, -0.94, 10.90, 1.99, 1.71, 7.73, repro,
2006-03-26,1.42, 0.66, 5.39, 2.01, 1.72, 7.83, repro,
2006-03-27,2.79, -0.97, 13.77, 1.99, 1.71, 7.77, repro,
2006-03-28,1.65, 0.26, 14.62, 1.93, 1.67, 7.60, repro,
2006-03-29,3.57, 0.65, 15.02, 1.91, 1.69, 7.63, repro,
2006-03-30,1.12, -0.38, 10.74, 1.88, 1.66, 7.44, repro,
2006-03-31,3.01, 0.61, 14.15, 1.90, 1.67, 7.50, repro,
2006-04-01,2.12, 0.24, 8.57, 1.90, 1.66, 7.51, repro,
2006-04-02,2.50, -0.39, 12.55, 1.88, 1.65, 7.45, repro,
2006-04-03,1.72, 0.14, 10.79, 1.89, 1.65, 7.54, repro,
2006-04-04,1.27, -0.92, 16.87, 1.89, 1.67, 7.47, repro,
2006-04-05,2.87, -2.24, 22.53, 1.97, 1.77, 8.06, repro,
2006-04-06,2.60, -0.86, 13.80, 1.93, 1.71, 7.65, repro,
2006-04-07,4.19, 0.34, 16.58, 1.97, 1.73, 7.72, repro,
2006-04-08,2.34, -1.27, 14.60, 1.94, 1.66, 7.53, repro,
2006-04-09,2.60, -2.08, 15.23, 1.89, 1.66, 7.50, repro,
2006-04-10,1.66, -0.94, 18.31, 1.89, 1.67, 7.51, repro,
2006-04-11,3.74, -0.70, 16.25, 1.97, 1.68, 7.92, repro,
2006-04-12,3.56, -0.31, 10.32, 1.95, 1.67, 7.81, repro,
2006-04-13,3.14, -0.17, 15.24, 1.90, 1.65, 7.45, repro,
2006-04-14,1.17, -4.55, 14.91, 1.95, 1.71, 7.80, repro,
2006-04-15,1.66, 0.48, 16.60, 1.93, 1.71, 7.70, repro,
2006-04-16,2.72, -1.17, 11.86, 1.88, 1.64, 7.42, repro,
2006-04-17,3.03, -1.13, 16.82, 1.87, 1.64, 7.40, repro,
2006-04-18,3.70, -1.70, 16.31, 1.91, 1.69, 7.67, repro,
2006-04-19,3.45, -0.57, 16.59, 1.89, 1.65, 7.49, repro,
2006-04-20,2.29, -0.32, 17.59, 1.90, 1.68, 7.60, repro,
2006-04-21,2.58, -1.32, 17.18, 1.89, 1.65, 7.47, repro,
2006-04-22,2.33, -2.00, 14.92, 1.88, 1.65, 7.48, repro,
2006-04-23,2.54, -0.81, 15.34, 1.89, 1.70, 7.62, repro,
2006-04-24,2.98, -1.26, 13.86, 1.92, 1.71, 7.65, repro,
2006-04-25,2.96, -0.45, 15.91, 1.94, 1.71, 7.69, repro,
2006-04-26,1.48, -1.00, 11.42, 1.90, 1.70, 7.59, repro,
2006-04-27,2.06, -2.07, 9.89, 1.94, 1.67, 7.54, repro,
2006-04-28,2.62, -1.01, 9.55, 1.92, 1.65, 7.45, repro,
2006-04-29,4.26, -1.48, 9.43, 1.88, 1.64, 7.46, repro,
2006-04-30,5.23, -1.10, 14.79, 1.89, 1.65, 7.50, repro,
2006-05-01,3.73, 0.10, 19.20, 1.91, 1.65, 7.55, repro,
2006-05-02,2.64, 0.07, 7.82, 1.88, 1.64, 7.44, repro,
2006-05-03,2.64, -0.82, 8.41, 1.87, 1.63, 7.38, repro,
2006-05-04,3.64, -1.02, 7.39, 1.89, 1.65, 7.47, repro,
2006-05-05,4.67, -2.05, 13.18, 1.90, 1.65, 7.52, repro,
2006-05-06,5.16, -0.78, 14.60, 1.90, 1.65, 7.54, repro,
2006-05-07,3.90, -0.85, 16.06, 1.89, 1.65, 7.51, repro,
2006-05-08,3.97, -0.44, 10.44, 1.88, 1.64, 7.44, repro,
2006-05-09,5.52, -1.87, 13.12, 1.94, 1.65, 7.62, repro,
2006-05-10,4.36, -0.62, 14.56, 1.88, 1.64, 7.44, repro,
2006-05-11,5.23, -1.38, 18.61, 1.89, 1.65, 7.56, repro,
2006-05-12,3.69, -0.86, 17.87, 1.91, 1.64, 7.54, repro,
2006-05-13,3.10, -1.41, 18.58, 1.88, 1.64, 7.47, repro,
2006-05-14,3.35, -2.32, 10.30, 1.88, 1.63, 7.44, repro,
2006-05-15,2.98, -1.31, 11.64, 1.89, 1.64, 7.56, repro,
2006-05-16,3.73, -0.85, 14.38, 1.92, 1.68, 7.66, repro,
2006-05-17,4.17, -1.89, 20.17, 1.95, 1.69, 7.68, repro,
2006-05-18,4.31, -2.09, 15.06, 1.96, 1.66, 7.73, repro,
2006-05-19,5.06, -2.09, 15.13, 2.04, 1.69, 7.94, repro,
2006-05-20,2.55, -3.44, 7.48, 1.96, 1.65, 7.74, repro,
2006-05-21,4.25, -0.99, 10.27, 1.97, 1.66, 7.76, repro,
2006-05-22,4.71, -2.05, 18.36, 1.99, 1.68, 7.87, repro,
2006-05-23,3.26, -1.33, 10.33, 1.97, 1.65, 7.68, repro,
2006-05-24,3.10, -1.44, 13.97, 1.97, 1.68, 7.77, repro,
2006-05-25,4.40, -1.93, 12.49, 2.07, 1.70, 8.11, repro,
2006-05-26,2.47, -1.31, 14.15, 2.03, 1.68, 8.00, repro,
2006-05-27,2.14, -1.06, 23.15, 1.99, 1.69, 7.87, repro,
2006-05-28,3.85, -1.71, 18.31, 1.97, 1.65, 7.69, repro,
2006-05-29,3.84, -1.04, 21.61, 1.97, 1.66, 7.67, repro,
2006-05-30,4.46, -2.11, 18.16, 2.00, 1.68, 7.82, repro,
2006-05-31,3.91, -1.75, 17.46, 2.05, 1.73, 8.04, repro,
2006-06-01,3.15, -0.86, 11.77, 2.00, 1.69, 7.86, repro,
2006-06-02,3.41, -0.26, 14.31, 2.08, 1.75, 8.10, repro,
2006-06-03,3.43, -1.73, 20.63, 2.01, 1.69, 7.80, repro,
2006-06-04,5.09, -0.81, 20.21, 2.01, 1.69, 7.79, repro,
2006-06-05,4.49, -1.55, 14.71, 2.02, 1.69, 7.82, repro,
2006-06-06,4.72, -1.00, 14.23, 2.04, 1.72, 7.96, repro,
2006-06-07,3.30, -1.32, 14.81, 2.04, 1.71, 7.95, repro,
2006-06-08,4.46, -1.57, 19.59, 1.98, 1.67, 7.74, repro,
2006-06-09,3.89, -0.14, 25.20, 2.03, 1.73, 8.03, repro,
2006-06-10,5.52, -0.25, 16.19, 1.98, 1.65, 7.68, repro,
2006-06-11,3.85, -1.97, 18.52, 1.98, 1.68, 7.78, repro,
2006-06-12,3.53, -0.31, 22.57, 2.01, 1.68, 7.85, repro,
2006-06-13,3.86, -0.44, 24.86, 2.00, 1.68, 7.84, repro,
2006-06-14,5.02, -0.31, 23.60, 1.96, 1.66, 7.71, repro,
2006-06-15,3.51, -2.29, 25.79, 1.96, 1.67, 7.78, repro,
2006-06-16,5.20, -0.52, 17.36, 1.97, 1.66, 7.75, repro,
2006-06-17,4.92, -0.93, 15.37, 1.95, 1.64, 7.62, repro,
2006-06-18,3.82, -0.84, 18.98, 1.99, 1.69, 7.91, repro,
2006-06-19,4.80, -1.82, 20.51, 1.99, 1.69, 7.94, repro,
2006-06-20,4.53, -1.15, 30.78, 1.97, 1.70, 7.90, repro,
2006-06-21,4.52, -0.67, 25.82, 1.97, 1.70, 7.90, repro,
2006-06-22,6.30, -0.20, 14.78, 1.97, 1.69, 7.83, repro,
2006-06-23,4.21, 1.88, 12.78, 1.99, 1.70, 7.98, repro,
2006-06-24,3.93, -3.54, 24.43, 1.99, 1.70, 7.98, repro,
2006-06-25,4.45, -1.44, 19.62, 1.99, 1.72, 8.01, repro,
2006-06-26,5.27, -2.44, 20.96, 2.00, 1.72, 8.02, repro,
2006-06-27,4.51, -0.98, 21.81, 2.07, 1.81, 8.21, repro,
2006-06-28,6.05, -0.42, 20.10, 2.01, 1.74, 8.05, repro,
2006-06-29,5.44, -0.69, 21.80, 1.97, 1.73, 7.83, repro,
2006-06-30,5.21, -0.91, 14.16, 2.01, 1.71, 8.05, repro,
2006-07-01,4.56, -0.54, 26.63, 2.02, 1.71, 8.04, repro,
2006-07-02,5.39, -1.71, 11.89, 2.00, 1.72, 8.04, repro,
2006-07-03,6.54, -3.16, 20.58, 1.96, 1.66, 7.84, repro,
2006-07-04,4.94, -1.07, 17.16, 1.95, 1.65, 7.79, repro,
2006-07-05,3.59, -0.88, 18.73, 1.96, 1.67, 7.86, repro,
2006-07-06,6.62, -1.43, 15.59, 1.96, 1.65, 7.80, repro,
2006-07-07,7.22, -1.47, 16.84, 1.98, 1.70, 8.00, repro,
2006-07-08,5.04, 0.01, 24.07, 1.95, 1.65, 7.79, repro,
2006-07-09,6.36, -1.79, 19.32, 1.97, 1.66, 7.84, repro,
2006-07-10,5.74, -1.80, 15.75, 1.99, 1.67, 7.87, repro,
2006-07-11,7.70, -2.30, 20.17, 1.96, 1.66, 7.86, repro,
2006-07-12,6.49, -4.37, 21.37, 1.99, 1.66, 7.89, repro,
2006-07-13,5.47, -1.46, 15.07, 1.98, 1.67, 7.87, repro,
2006-07-14,6.71, -1.38, 20.16, 1.95, 1.66, 7.82, repro,
2006-07-15,4.89, 0.43, 19.75, 1.99, 1.69, 7.95, repro,
2006-07-16,5.69, -2.99, 16.23, 1.97, 1.71, 8.02, repro,
2006-07-17,2.26, -2.42, 5.43, 2.13, 1.89, 8.57, repro,
2006-07-18,4.92, -0.28, 18.03, 1.92, 1.65, 7.55, repro,
2006-07-19,6.68, 0.52, 13.88, 1.89, 1.65, 7.51, repro,
2006-07-20,5.38, -2.97, 26.59, 1.92, 1.65, 7.59, repro,
2006-07-21,6.13, -1.32, 18.27, 1.91, 1.67, 7.63, repro,
2006-07-22,6.29, -2.64, 16.44, 1.91, 1.67, 7.61, repro,
2006-07-23,6.08, -0.58, 22.67, 1.92, 1.67, 7.61, repro,
2006-07-24,5.93, -3.26, 18.71, 1.89, 1.65, 7.50, repro,
2006-07-25,5.90, -0.22, 21.75, 1.91, 1.65, 7.55, repro,
2006-07-26,6.75, -0.07, 13.45, 1.91, 1.68, 7.64, repro,
2006-07-27,5.43, -0.89, 14.50, 1.91, 1.67, 7.60, repro,
2006-07-28,5.53, 0.13, 12.77, 1.90, 1.66, 7.49, repro,
2006-07-29,6.41, -0.93, 13.21, 1.91, 1.67, 7.58, repro,
2006-07-30,7.31, -3.15, 19.61, 1.90, 1.64, 7.50, repro,
2006-07-31,7.25, -2.41, 26.35, 1.90, 1.66, 7.56, repro,
2006-08-01,7.54, -3.38, 24.81, 1.92, 1.68, 7.62, repro,
2006-08-02,6.66, -0.28, 7.70, 1.99, 1.79, 8.10, repro,
2006-08-03,6.19, 0.76, 9.72, 1.91, 1.70, 7.75, repro,
2006-08-04,6.42, -1.65, 22.89, 1.99, 1.71, 7.99, repro,
2006-08-05,6.67, -1.49, 21.04, 1.96, 1.76, 7.94, repro,
2006-08-06,6.33, -1.36, 10.74, 1.93, 1.70, 7.77, repro,
2006-08-07,7.47, -1.80, 6.59, 1.95, 1.71, 7.85, repro,
2006-08-08,5.04, -0.54, 18.77, 1.92, 1.66, 7.62, repro,
2006-08-09,7.11, -0.09, 17.26, 1.92, 1.66, 7.61, repro,
2006-08-10,7.54, -3.22, 25.47, 1.92, 1.66, 7.62, repro,
2006-08-11,6.34, -2.18, 22.81, 1.91, 1.66, 7.58, repro,
2006-08-12,9.81, -1.90, 12.95, 1.94, 1.69, 7.68, repro,
2006-08-13,6.90, -2.20, 15.91, 1.95, 1.72, 7.72, repro,
2006-08-14,7.97, -1.93, 18.83, 1.95, 1.74, 7.75, repro,
2006-08-15,6.14, -2.15, 28.70, 2.00, 1.71, 7.91, repro,
2006-08-16,7.08, -3.66, 21.20, 1.93, 1.67, 7.63, repro,
2006-08-17,8.75, -1.59, 14.13, 1.93, 1.68, 7.70, repro,
2006-08-18,6.68, -1.45, 15.82, 1.92, 1.69, 7.61, repro,
2006-08-19,7.78, -2.53, 11.02, 1.88, 1.63, 7.43, repro,
2006-08-20,7.45, -2.27, 17.10, 1.90, 1.65, 7.50, repro,
2006-08-21,7.15, -2.75, 15.12, 1.93, 1.69, 7.67, repro,
2006-08-22,7.58, -0.52, 11.00, 1.93, 1.71, 7.73, repro,
2006-08-23,6.37, -1.95, 18.55, 1.92, 1.70, 7.67, repro,
2006-08-24,7.97, -1.55, 12.93, 1.92, 1.70, 7.69, repro,
2006-08-25,6.88, -2.92, 23.97, 2.13, 1.95, 8.52, repro,
2006-08-26,5.73, -3.30, 25.75, 1.97, 1.74, 7.96, repro,
2006-08-27,8.83, -3.41, 19.54, 1.96, 1.75, 7.90, repro,
2006-08-28,8.31, -2.21, 9.20, 1.95, 1.76, 7.91, repro,
2006-08-29,8.39, -3.09, 14.84, 1.98, 1.78, 8.09, repro,
2006-08-30,8.03, -5.08, 22.59, 2.03, 1.83, 8.43, repro,
2006-08-31,5.71, -2.11, 11.77, 1.98, 1.77, 8.09, repro,
2006-09-01,8.17, -3.68, 25.19, 2.02, 1.81, 8.23, repro,
2006-09-02,10.93, -2.27, 9.91, 1.97, 1.77, 8.01, repro,
2006-09-03,9.22, -1.30, 16.25, 1.96, 1.77, 8.03, repro,
2006-09-04,8.75, -2.22, 6.28, 1.99, 1.81, 8.13, repro,
2006-09-05,8.19, -2.43, 7.52, 2.01, 1.79, 8.14, repro,
2006-09-06,8.99, -2.63, 17.17, 1.96, 1.75, 7.93, repro,
2006-09-07,7.97, -3.38, 10.66, 2.03, 1.83, 8.22, repro,
2006-09-08,10.57, -1.59, 19.21, 2.02, 1.83, 8.18, repro,
2006-09-09,9.45, -2.52, 18.17, 1.97, 1.81, 7.95, repro,
2006-09-10,9.31, -0.52, 13.17, 1.98, 1.76, 7.94, repro,
2006-09-11,7.87, -3.36, 18.64, 1.94, 1.72, 7.75, repro,
2006-09-12,9.64, -3.75, 17.19, 1.94, 1.72, 7.78, repro,
2006-09-13,9.18, -0.53, 6.82, 1.93, 1.73, 7.85, repro,
2006-09-14,7.70, -3.04, 14.28, 1.97, 1.73, 7.90, repro,
2006-09-15,9.28, -4.06, 17.29, 1.97, 1.73, 7.92, repro,
2006-09-16,9.24, -3.84, 13.70, 1.92, 1.68, 7.60, repro,
2006-09-17,11.05, -4.01, 18.34, 1.91, 1.67, 7.60, repro,
2006-09-18,9.67, -1.77, 12.54, 1.90, 1.67, 7.58, repro,
2006-09-19,9.32, -1.99, 7.84, 1.90, 1.67, 7.53, repro,
2006-09-20,9.16, -2.35, 13.57, 1.90, 1.66, 7.53, repro,
2006-09-21,9.84, -2.15, 13.55, 1.93, 1.71, 7.72, repro,
2006-09-22,10.77, -4.65, 23.08, 1.99, 1.76, 7.97, repro,
2006-09-23,10.00, -3.42, 8.29, 1.96, 1.71, 7.77, repro,
2006-09-24,11.40, -2.44, 8.09, 2.01, 1.74, 7.90, repro,
2006-09-25,9.61, 0.08, 9.85, 2.02, 1.72, 8.02, repro,
2006-09-26,8.98, -2.42, 9.26, 1.99, 1.75, 7.95, repro,
2006-09-27,11.11, -3.29, 10.85, 1.98, 1.71, 7.76, repro,
2006-09-28,11.23, -3.89, 12.52, 1.98, 1.70, 7.73, repro,
2006-09-29,9.28, -3.44, 15.05, 1.96, 1.70, 7.71, repro,
2006-09-30,10.35, -3.31, 18.21, 1.97, 1.73, 7.81, repro,
2006-10-01,9.68, -2.94, 14.50, 1.94, 1.71, 7.77, repro,
2006-10-02,12.50, -3.61, 12.55, 2.00, 1.79, 7.87, repro,
2006-10-03,9.68, -3.84, 17.31, 2.03, 1.83, 8.08, repro,
2006-10-04,10.76, -3.32, 16.82, 1.98, 1.72, 7.80, repro,
2006-10-05,11.82, -4.52, 20.71, 1.95, 1.70, 7.77, repro,
2006-10-06,8.22, -5.44, 8.65, 2.02, 1.76, 8.24, repro,
2006-10-07,10.42, -3.61, 8.53, 2.01, 1.77, 8.14, repro,
2006-10-08,11.00, -4.38, 6.11, 2.02, 1.78, 8.19, repro,
2006-10-09,11.07, -4.89, 12.13, 1.95, 1.75, 7.89, repro,
2006-10-10,9.05, -5.91, 12.27, 1.95, 1.71, 7.81, repro,
2006-10-11,9.89, -5.16, 13.45, 1.97, 1.76, 7.98, repro,
2006-10-12,10.24, -3.96, 23.11, 1.97, 1.72, 7.83, repro,
2006-10-13,9.59, -3.55, 17.38, 1.93, 1.72, 7.79, repro,
2006-10-14,11.62, -3.15, 14.62, 1.89, 1.69, 7.63, repro,
2006-10-15,10.96, -4.48, 17.11, 1.90, 1.72, 7.69, repro,
2006-10-16,11.34, -3.47, 27.71, 1.95, 1.76, 7.93, repro,
2006-10-17,11.09, -4.31, 24.65, 2.04, 1.81, 8.32, repro,
2006-10-18,11.68, -2.84, 15.95, 1.91, 1.72, 7.74, repro,
2006-10-19,12.61, -4.41, 11.08, 1.93, 1.77, 7.88, repro,
2006-10-20,12.99, -4.55, 10.70, 2.18, 1.97, 9.51, repro,
2006-10-21,11.47, -3.08, 12.32, 2.13, 1.94, 9.19, repro,
2006-10-22,11.24, -5.04, 16.35, 1.92, 1.76, 7.83, repro,
2006-10-23,12.37, -4.27, 15.63, 1.88, 1.73, 7.72, repro,
2006-10-24,13.30, -5.17, 7.64, 1.96, 1.80, 8.00, repro,
2006-10-25,12.04, -3.93, 10.59, 1.98, 1.82, 7.97, repro,
2006-10-26,12.11, -4.29, 7.72, 1.95, 1.80, 7.85, repro,
2006-10-27,12.55, -4.20, 9.80, 1.88, 1.73, 7.67, repro,
2006-10-28,12.35, -4.30, 13.79, 1.92, 1.76, 7.83, repro,
2006-10-29,10.21, -4.42, 10.24, 1.90, 1.73, 7.72, repro,
2006-10-30,11.44, -5.65, 15.84, 1.86, 1.71, 7.59, repro,
2006-10-31,11.24, -4.37, 14.59, 1.91, 1.73, 7.72, repro,
2006-11-01,12.24, -5.01, 11.53, 1.94, 1.86, 8.06, repro,
2006-11-02,13.52, -4.57, 16.66, 1.89, 1.72, 7.59, repro,
2006-11-03,11.57, -3.92, 16.31, 1.90, 1.77, 7.75, repro,
2006-11-04,13.09, -4.92, 7.72, 1.93, 1.76, 7.83, repro,
2006-11-05,12.17, -4.82, 13.14, 1.94, 1.78, 7.91, repro,
2006-11-06,12.24, -4.09, 10.58, 1.90, 1.73, 7.70, repro,
2006-11-07,12.75, -4.35, 12.21, 1.96, 1.83, 8.18, repro,
2006-11-08,11.66, -5.35, 25.19, 1.95, 1.76, 7.94, repro,
2006-11-09,11.48, -3.64, 18.05, 1.94, 1.76, 7.90, repro,
2006-11-10,12.09, -4.23, 10.84, 1.92, 1.71, 7.75, repro,
2006-11-11,11.22, -3.61, 13.66, 1.96, 1.77, 8.06, repro,
2006-11-12,12.33, -5.09, 17.24, 2.01, 1.87, 8.37, repro,
2006-11-13,12.75, -4.84, 13.79, 1.95, 1.74, 7.91, repro,
2006-11-14,12.55, -5.57, 19.32, 1.87, 1.67, 7.59, repro,
2006-11-15,12.81, -5.43, 12.94, 1.85, 1.66, 7.48, repro,
2006-11-16,12.22, -4.88, 14.93, 1.85, 1.68, 7.49, repro,
2006-11-17,12.33, -5.45, 14.68, 1.86, 1.69, 7.54, repro,
2006-11-18,11.96, -5.25, 15.18, 1.86, 1.66, 7.45, repro,
2006-11-19,12.20, -6.84, 11.23, 1.86, 1.66, 7.48, repro,
2006-11-20,12.43, -5.41, 8.24, 1.86, 1.71, 7.60, repro,
2006-11-21,12.91, -4.93, 10.50, 1.86, 1.68, 7.52, repro,
2006-11-22,11.97, -4.21, 7.56, 1.86, 1.68, 7.50, repro,
2006-11-23,11.81, -5.55, 12.78, 1.89, 1.71, 7.68, repro,
2006-11-24,12.79, -6.98, 22.56, 1.93, 1.74, 7.79, repro,
2006-11-25,12.15, -6.37, 14.76, 1.89, 1.69, 7.66, repro,
2006-11-26,11.96, -5.29, 11.95, 1.90, 1.72, 7.67, repro,
2006-11-27,12.21, -4.72, 14.45, 1.91, 1.70, 7.69, repro,
2006-11-28,12.08, -9.45, 9.60, 1.87, 1.68, 7.56, repro,
2006-11-29,12.16, -5.93, 16.83, 1.85, 1.66, 7.42, repro,
2006-11-30,13.04, -6.19, 6.06, 1.88, 1.72, 7.65, repro,
2006-12-01,12.85, -4.95, 6.31, 1.88, 1.72, 7.65, repro,
2006-12-02,11.96, -5.82, 6.19, 1.86, 1.68, 7.51, repro,
2006-12-03,13.83, -5.73, 5.02, 1.86, 1.67, 7.47, repro,
2006-12-04,13.04, -6.24, 4.92, 1.89, 1.68, 7.57, repro,
2006-12-05,13.03, -7.37, 12.22, 1.90, 1.74, 7.67, repro,
2006-12-06,13.80, -6.81, 11.91, 1.94, 1.82, 7.85, repro,
2006-12-07,13.82, -6.99, 9.97, 1.90, 1.75, 7.64, repro,
2006-12-09,14.18, -6.82, 11.07, 1.93, 1.75, 7.73, repro,
2006-12-10,12.49, -4.91, 22.58, 1.94, 1.74, 7.86, repro,
2006-12-11,13.68, -9.10, 10.94, 1.86, 1.70, 7.51, repro,
2006-12-12,14.55, -6.92, 12.94, 1.94, 1.76, 7.75, repro,
2006-12-13,14.58, -6.86, 12.54, 1.87, 1.71, 7.60, repro,
2006-12-14,14.74, -6.23, 13.75, 1.82, 1.69, 7.40, repro,
2006-12-15,13.93, -7.57, 16.78, 1.92, 1.76, 7.59, repro,
2006-12-16,12.23, -7.39, 17.24, 1.94, 1.79, 7.78, repro,
2006-12-17,10.55, -7.62, 5.43, 1.99, 1.85, 8.25, repro,
2006-12-18,13.80, -6.73, 11.55, 2.02, 1.81, 8.22, repro,
2006-12-19,13.95, -6.38, 6.66, 1.96, 1.85, 7.99, repro,
2006-12-20,14.58, -6.41, 13.36, 1.86, 1.75, 7.59, repro,
2006-12-21,13.96, -7.89, 10.80, 1.89, 1.83, 7.67, repro,
2006-12-22,13.36, -7.99, 19.40, 1.96, 1.80, 8.04, repro,
2006-12-23,13.64, -6.13, 16.00, 1.88, 1.73, 7.59, repro,
2006-12-24,14.67, -7.31, 10.47, 1.85, 1.70, 7.57, repro,
2006-12-25,14.84, -8.02, 10.41, 1.85, 1.71, 7.54, repro,
2006-12-26,14.68, -7.22, 12.75, 1.89, 1.77, 7.64, repro,
2006-12-27,15.62, -9.06, 8.94, 1.92, 1.82, 7.83, repro,
2006-12-28,14.30, -8.25, 16.01, 2.00, 1.88, 8.14, repro,
2006-12-29,14.48, -8.78, 14.05, 1.89, 1.75, 7.77, repro,
2006-12-30,14.51, -8.45, 13.66, 1.90, 1.78, 7.74, repro,
2006-12-31,14.84, -7.20, 9.67, 2.06, 1.87, 8.42, repro,
2007-01-01,14.93, -8.45, 9.32, 2.04, 1.88, 8.37, repro,
2007-01-02,14.29, -6.98, 13.38, 1.92, 1.79, 7.82, repro,
2007-01-03,14.95, -7.45, 15.00, 1.84, 1.72, 7.55, repro,
2007-01-04,15.45, -7.90, 16.07, 1.85, 1.72, 7.58, repro,
2007-01-05,15.68, -7.04, 1.81, 1.91, 1.79, 7.84, repro,
2007-01-06,15.70, -8.79, 8.20, 1.84, 1.71, 7.45, repro,
2007-01-07,16.33, -6.55, 3.13, 1.87, 1.70, 7.45, repro,